AUA21M EBBR-LOWW

Flight info

Callsign AUA21M
Flight time 1h 15m
Altitude 35000
Route SOPOK Y863 ROPUV L607 EMGOD DCT BOMBI DCT BARSU DCT EKSOS DCT LULAR DCT RUDAP DCT BUDEX BUDEX2W
Aircraft A20N/M-SDE2E3FGHIRWXY/LB1

Departure

Time 2026-05-06 16:46
Airport Brussels Airport (EBBR)

Arrival

Time 2026-05-06 18:01
Airport Vienna International Airport (LOWW)
Time Latitude Longitude Altitude Speed Heading
2026-05-06 16:25 50.90349 4.48826 135 ft 0 kts 335°
2026-05-06 16:37 50.90330 4.48838 135 ft 4 kts 340°
2026-05-06 16:37 50.90305 4.48851 136 ft 4 kts 350°
2026-05-06 16:37 50.90278 4.48853 137 ft 4 kts 17°
2026-05-06 16:37 50.90262 4.48837 138 ft 0 kts 65°
2026-05-06 16:41 50.90275 4.48880 138 ft 9 kts 65°
2026-05-06 16:41 50.90302 4.48974 138 ft 2 kts 65°
2026-05-06 16:42 50.90323 4.49049 138 ft 12 kts 66°
2026-05-06 16:42 50.90358 4.49187 136 ft 16 kts 69°
2026-05-06 16:42 50.90407 4.49354 134 ft 18 kts 60°
2026-05-06 16:42 50.90465 4.49548 134 ft 20 kts 68°
2026-05-06 16:43 50.90539 4.49627 135 ft 12 kts 18°
2026-05-06 16:43 50.90634 4.49668 132 ft 16 kts 13°
2026-05-06 16:43 50.90731 4.49706 133 ft 14 kts 14°
2026-05-06 16:43 50.90766 4.49720 132 ft 0 kts 13°
2026-05-06 16:44 50.90775 4.49723 132 ft 4 kts 13°
2026-05-06 16:44 50.90839 4.49749 128 ft 16 kts 14°
2026-05-06 16:44 50.90912 4.49782 125 ft 5 kts 22°
2026-05-06 16:44 50.90974 4.49848 126 ft 17 kts 39°
2026-05-06 16:45 50.91088 4.49940 120 ft 19 kts 13°
2026-05-06 16:45 50.91118 4.49821 124 ft 16 kts 249°
2026-05-06 16:45 50.91028 4.49502 128 ft 66 kts 246°
2026-05-06 16:45 50.90735 4.48473 134 ft 137 kts 244°
2026-05-06 16:46 50.90257 4.46864 304 ft 177 kts 250°
2026-05-06 16:46 50.89755 4.45015 1033 ft 185 kts 246°
2026-05-06 16:46 50.89166 4.43140 1730 ft 196 kts 239°
2026-05-06 16:46 50.88115 4.41763 2512 ft 201 kts 197°
2026-05-06 16:47 50.86769 4.41693 3260 ft 196 kts 156°
2026-05-06 16:47 50.85993 4.42410 3779 ft 190 kts 130°
2026-05-06 16:47 50.84920 4.44588 4807 ft 191 kts 121°
2026-05-06 16:47 50.84128 4.46288 5568 ft 193 kts 123°
2026-05-06 16:48 50.83307 4.47984 6283 ft 198 kts 125°
2026-05-06 16:48 50.82434 4.49731 6830 ft 209 kts 126°
2026-05-06 16:48 50.81822 4.50931 7181 ft 218 kts 126°
2026-05-06 16:48 50.80837 4.52849 7696 ft 231 kts 127°
2026-05-06 16:49 50.79781 4.54895 8148 ft 248 kts 127°
2026-05-06 16:49 50.78672 4.57039 8826 ft 255 kts 127°
2026-05-06 16:49 50.77538 4.59227 9629 ft 262 kts 127°
2026-05-06 16:49 50.76371 4.61484 10373 ft 268 kts 127°
2026-05-06 16:50 50.75187 4.63774 11110 ft 274 kts 128°
2026-05-06 16:50 50.73953 4.66115 11868 ft 279 kts 129°
2026-05-06 16:50 50.72653 4.68446 12575 ft 287 kts 130°
2026-05-06 16:50 50.71315 4.70810 13226 ft 296 kts 128°
2026-05-06 16:51 50.70100 4.73473 13885 ft 301 kts 121°
2026-05-06 16:51 50.68948 4.76250 14489 ft 305 kts 121°
2026-05-06 16:51 50.67794 4.79056 15094 ft 313 kts 122°
2026-05-06 16:51 50.66595 4.81940 15705 ft 320 kts 123°
2026-05-06 16:52 50.65341 4.84921 16345 ft 325 kts 123°
2026-05-06 16:52 50.64101 4.87871 16998 ft 330 kts 121°
2026-05-06 16:52 50.62961 4.91046 17646 ft 336 kts 118°
2026-05-06 16:52 50.61863 4.94350 18166 ft 344 kts 118°
2026-05-06 16:53 50.60754 4.97709 18643 ft 351 kts 118°
2026-05-06 16:53 50.59604 5.01149 19126 ft 358 kts 118°
2026-05-06 16:53 50.58419 5.04643 19615 ft 364 kts 119°
2026-05-06 16:53 50.57245 5.08193 20102 ft 370 kts 113°
2026-05-06 16:54 50.56547 5.12131 20596 ft 377 kts 104°
2026-05-06 16:54 50.56047 5.16195 21105 ft 382 kts 103°
2026-05-06 16:54 50.55561 5.20296 21624 ft 386 kts 103°
2026-05-06 16:54 50.55071 5.24461 22154 ft 391 kts 103°
2026-05-06 16:55 50.54573 5.28667 22691 ft 394 kts 103°
2026-05-06 16:55 50.54060 5.32938 23238 ft 398 kts 103°
2026-05-06 16:55 50.53541 5.37228 23703 ft 402 kts 103°
2026-05-06 16:55 50.53012 5.41564 24160 ft 405 kts 103°
2026-05-06 16:56 50.52480 5.45907 24631 ft 407 kts 104°
2026-05-06 16:56 50.51949 5.50200 25106 ft 409 kts 104°
2026-05-06 16:56 50.51403 5.54613 25584 ft 410 kts 104°
2026-05-06 16:56 50.50866 5.58942 26048 ft 412 kts 104°
2026-05-06 16:57 50.50322 5.63298 26415 ft 416 kts 104°
2026-05-06 16:57 50.49761 5.67767 26800 ft 420 kts 104°
2026-05-06 16:57 50.49191 5.72290 27189 ft 424 kts 104°
2026-05-06 16:57 50.48612 5.76856 27455 ft 430 kts 104°
2026-05-06 16:58 50.48025 5.81470 27709 ft 435 kts 104°
2026-05-06 16:58 50.47430 5.86132 27982 ft 440 kts 104°
2026-05-06 16:58 50.46829 5.90821 28256 ft 444 kts 104°
2026-05-06 16:58 50.46220 5.95558 28514 ft 448 kts 105°
2026-05-06 16:59 50.45600 6.00354 28781 ft 452 kts 105°
2026-05-06 16:59 50.44971 6.05205 29046 ft 456 kts 104°
2026-05-06 16:59 50.44342 6.10038 29330 ft 459 kts 104°
2026-05-06 16:59 50.43696 6.14989 29573 ft 462 kts 104°
2026-05-06 17:00 50.43065 6.19812 29858 ft 465 kts 104°
2026-05-06 17:00 50.42413 6.24771 30115 ft 468 kts 104°
2026-05-06 17:00 50.41758 6.29739 30339 ft 471 kts 105°
2026-05-06 17:00 50.41094 6.34753 30586 ft 474 kts 105°
2026-05-06 17:01 50.40419 6.39834 30843 ft 476 kts 105°
2026-05-06 17:01 50.39751 6.44841 31090 ft 476 kts 105°
2026-05-06 17:01 50.39080 6.49867 31317 ft 476 kts 106°
2026-05-06 17:01 50.38411 6.54856 31572 ft 478 kts 106°
2026-05-06 17:02 50.37734 6.59889 31832 ft 477 kts 106°
2026-05-06 17:02 50.37044 6.64992 32084 ft 477 kts 106°
2026-05-06 17:02 50.36354 6.70070 32352 ft 476 kts 107°
2026-05-06 17:02 50.35675 6.75046 32618 ft 476 kts 107°
2026-05-06 17:03 50.34985 6.80087 32819 ft 476 kts 107°
2026-05-06 17:03 50.33616 6.90040 32824 ft 475 kts 107°
2026-05-06 17:04 50.32221 7.00106 32832 ft 476 kts 107°
2026-05-06 17:04 50.30810 7.10212 32827 ft 475 kts 107°
2026-05-06 17:05 50.29405 7.20215 32828 ft 475 kts 107°
2026-05-06 17:05 50.27979 7.30296 32824 ft 475 kts 107°
2026-05-06 17:06 50.26545 7.40364 32824 ft 476 kts 107°
2026-05-06 17:06 50.25109 7.50387 32814 ft 476 kts 107°
2026-05-06 17:07 50.23980 7.58225 32819 ft 476 kts 107°
2026-05-06 17:07 50.22792 7.66425 32814 ft 476 kts 107°
2026-05-06 17:08 50.21327 7.76465 32824 ft 476 kts 107°
2026-05-06 17:08 50.19854 7.86502 32817 ft 478 kts 108°
2026-05-06 17:09 50.18349 7.96664 32836 ft 488 kts 108°
2026-05-06 17:09 50.17586 8.01810 32966 ft 489 kts 108°
2026-05-06 17:09 50.16849 8.06771 33065 ft 489 kts 108°
2026-05-06 17:09 50.16084 8.11894 33169 ft 489 kts 108°
2026-05-06 17:10 50.15319 8.17001 33251 ft 489 kts 108°
2026-05-06 17:10 50.13774 8.27269 33291 ft 485 kts 108°
2026-05-06 17:10 50.13010 8.32331 33138 ft 477 kts 108°
2026-05-06 17:11 50.12249 8.37352 33162 ft 476 kts 108°
2026-05-06 17:11 50.11483 8.42369 33051 ft 478 kts 108°
2026-05-06 17:11 50.10721 8.47352 32917 ft 474 kts 108°
2026-05-06 17:11 50.09955 8.52348 32805 ft 473 kts 108°
2026-05-06 17:12 50.09171 8.57325 32805 ft 474 kts 109°
2026-05-06 17:12 50.07652 8.67329 32802 ft 475 kts 108°
2026-05-06 17:13 50.06165 8.77328 32805 ft 474 kts 108°
2026-05-06 17:13 50.04652 8.87179 32801 ft 474 kts 108°
2026-05-06 17:14 50.03100 8.97101 32803 ft 474 kts 109°
2026-05-06 17:14 50.01533 9.07048 32802 ft 474 kts 109°
2026-05-06 17:15 49.99959 9.16976 32798 ft 474 kts 109°
2026-05-06 17:15 49.98382 9.26863 32799 ft 474 kts 109°
2026-05-06 17:16 49.96799 9.36734 32800 ft 474 kts 109°
2026-05-06 17:16 49.95212 9.46570 32793 ft 474 kts 109°
2026-05-06 17:17 49.93626 9.56344 32798 ft 473 kts 109°
2026-05-06 17:17 49.92026 9.66145 32793 ft 474 kts 109°
2026-05-06 17:18 49.90395 9.76077 32792 ft 474 kts 109°
2026-05-06 17:18 49.88762 9.85962 32788 ft 474 kts 109°
2026-05-06 17:19 49.87123 9.95829 32774 ft 474 kts 109°
2026-05-06 17:19 49.85479 10.05660 32779 ft 475 kts 109°
2026-05-06 17:20 49.83827 10.15493 32787 ft 475 kts 109°
2026-05-06 17:20 49.82152 10.25398 32783 ft 481 kts 109°
2026-05-06 17:21 49.80453 10.35385 32785 ft 487 kts 109°
2026-05-06 17:21 49.78730 10.45477 32762 ft 486 kts 109°
2026-05-06 17:22 49.76984 10.55621 32780 ft 490 kts 109°
2026-05-06 17:22 49.75221 10.65820 32775 ft 490 kts 109°
2026-05-06 17:23 49.73459 10.75952 32777 ft 490 kts 109°
2026-05-06 17:23 49.71694 10.86040 32777 ft 489 kts 109°
2026-05-06 17:24 49.69911 10.96172 32778 ft 490 kts 110°
2026-05-06 17:24 49.68130 11.06235 32772 ft 489 kts 110°
2026-05-06 17:25 49.66335 11.16325 32773 ft 489 kts 110°
2026-05-06 17:25 49.64563 11.26245 32762 ft 476 kts 110°
2026-05-06 17:26 49.62787 11.36094 32760 ft 479 kts 110°
2026-05-06 17:26 49.61025 11.45832 32757 ft 478 kts 110°
2026-05-06 17:27 49.59224 11.55736 32761 ft 478 kts 110°
2026-05-06 17:27 49.57441 11.65487 32758 ft 478 kts 110°
2026-05-06 17:28 49.55641 11.75278 32743 ft 479 kts 110°
2026-05-06 17:28 49.53836 11.85039 32758 ft 480 kts 110°
2026-05-06 17:29 49.52019 11.94823 32757 ft 480 kts 111°
2026-05-06 17:29 49.50181 12.04660 32755 ft 480 kts 111°
2026-05-06 17:30 49.48325 12.14547 32748 ft 480 kts 111°
2026-05-06 17:30 49.46472 12.24355 32729 ft 483 kts 111°
2026-05-06 17:31 49.44608 12.34182 32728 ft 482 kts 111°
2026-05-06 17:31 49.42723 12.44065 32722 ft 482 kts 111°
2026-05-06 17:32 49.40837 12.53897 32719 ft 482 kts 111°
2026-05-06 17:32 49.38945 12.63718 32723 ft 482 kts 111°
2026-05-06 17:33 49.37068 12.73432 32726 ft 482 kts 111°
2026-05-06 17:33 49.35194 12.81461 32725 ft 479 kts 115°
2026-05-06 17:34 49.32869 12.91017 32728 ft 480 kts 115°
2026-05-06 17:34 49.30570 13.00470 32723 ft 480 kts 115°
2026-05-06 17:35 49.28213 13.10056 32730 ft 480 kts 115°
2026-05-06 17:35 49.25866 13.19547 32724 ft 480 kts 116°
2026-05-06 17:36 49.22241 13.33787 32723 ft 479 kts 117°
2026-05-06 17:36 49.19688 13.43160 32723 ft 482 kts 118°
2026-05-06 17:37 49.17149 13.52513 32728 ft 482 kts 118°
2026-05-06 17:37 49.14593 13.61942 32724 ft 482 kts 119°
2026-05-06 17:38 49.12015 13.71410 32719 ft 482 kts 119°
2026-05-06 17:38 49.09446 13.80817 32659 ft 482 kts 119°
2026-05-06 17:39 49.06869 13.90221 32511 ft 482 kts 119°
2026-05-06 17:39 49.05568 13.94950 32254 ft 481 kts 119°
2026-05-06 17:39 49.04270 13.99659 31989 ft 481 kts 119°
2026-05-06 17:40 49.02997 14.04265 31729 ft 483 kts 119°
2026-05-06 17:40 49.01688 14.08992 31470 ft 484 kts 119°
2026-05-06 17:40 49.00419 14.13568 31191 ft 485 kts 119°
2026-05-06 17:40 48.99090 14.18350 30755 ft 485 kts 119°
2026-05-06 17:41 48.97793 14.23012 30197 ft 485 kts 120°
2026-05-06 17:41 48.96495 14.27673 29665 ft 483 kts 120°
2026-05-06 17:41 48.95060 14.32271 29061 ft 476 kts 125°
2026-05-06 17:41 48.93369 14.36477 28478 ft 466 kts 131°
2026-05-06 17:42 48.91444 14.40373 27922 ft 457 kts 134°
2026-05-06 17:42 48.89522 14.44153 27394 ft 452 kts 134°
2026-05-06 17:42 48.87613 14.47925 26873 ft 448 kts 134°
2026-05-06 17:42 48.85728 14.51649 26357 ft 444 kts 134°
2026-05-06 17:43 48.83865 14.55326 25861 ft 441 kts 134°
2026-05-06 17:43 48.82000 14.59002 25354 ft 438 kts 134°
2026-05-06 17:43 48.80149 14.62645 24883 ft 434 kts 134°
2026-05-06 17:43 48.78347 14.66188 24432 ft 430 kts 134°
2026-05-06 17:44 48.76530 14.69753 23984 ft 426 kts 134°
2026-05-06 17:44 48.74737 14.73266 23554 ft 423 kts 134°
2026-05-06 17:44 48.72947 14.76768 23104 ft 420 kts 134°
2026-05-06 17:44 48.71177 14.80229 22598 ft 417 kts 134°
2026-05-06 17:45 48.69404 14.83689 22124 ft 414 kts 134°
2026-05-06 17:45 48.67642 14.87122 21678 ft 411 kts 134°
2026-05-06 17:45 48.65890 14.90532 21244 ft 409 kts 134°
2026-05-06 17:45 48.64155 14.93901 20791 ft 407 kts 134°
2026-05-06 17:46 48.62417 14.97274 20373 ft 406 kts 134°
2026-05-06 17:46 48.60705 15.00642 19961 ft 402 kts 130°
2026-05-06 17:46 48.59266 15.04256 19558 ft 400 kts 122°
2026-05-06 17:46 48.58214 15.08126 19172 ft 397 kts 115°
2026-05-06 17:47 48.57163 15.11898 18787 ft 386 kts 120°
2026-05-06 17:47 48.56060 15.15561 18425 ft 379 kts 120°
2026-05-06 17:47 48.54991 15.19078 17987 ft 374 kts 121°
2026-05-06 17:47 48.53915 15.22572 17491 ft 373 kts 121°
2026-05-06 17:48 48.52836 15.26056 16970 ft 371 kts 120°
2026-05-06 17:48 48.51748 15.29573 16458 ft 368 kts 120°
2026-05-06 17:48 48.50661 15.33051 15936 ft 364 kts 121°
2026-05-06 17:48 48.49561 15.36486 15453 ft 361 kts 119°
2026-05-06 17:49 48.48526 15.39913 14978 ft 358 kts 118°
2026-05-06 17:49 48.47496 15.43322 14526 ft 355 kts 118°
2026-05-06 17:49 48.46468 15.46670 14063 ft 351 kts 119°
2026-05-06 17:49 48.45432 15.49998 13566 ft 350 kts 119°
2026-05-06 17:50 48.44396 15.53293 12997 ft 348 kts 119°
2026-05-06 17:50 48.43356 15.56585 12446 ft 347 kts 119°
2026-05-06 17:50 48.42318 15.59863 11889 ft 346 kts 119°
2026-05-06 17:50 48.41295 15.63090 11353 ft 345 kts 119°
2026-05-06 17:51 48.40258 15.66354 10768 ft 346 kts 119°
2026-05-06 17:51 48.39254 15.69509 10199 ft 346 kts 118°
2026-05-06 17:51 48.38220 15.72753 9683 ft 344 kts 118°
2026-05-06 17:51 48.37213 15.75921 9207 ft 332 kts 118°
2026-05-06 17:52 48.36234 15.79004 8747 ft 325 kts 118°
2026-05-06 17:52 48.35246 15.82097 8369 ft 330 kts 118°
2026-05-06 17:52 48.34257 15.85186 8048 ft 326 kts 118°
2026-05-06 17:52 48.33280 15.88240 7715 ft 321 kts 118°
2026-05-06 17:53 48.32306 15.91279 7389 ft 324 kts 118°
2026-05-06 17:53 48.31331 15.94319 7059 ft 322 kts 118°
2026-05-06 17:53 48.30360 15.97345 6756 ft 323 kts 118°
2026-05-06 17:53 48.29387 16.00372 6448 ft 321 kts 118°
2026-05-06 17:54 48.28426 16.03362 6123 ft 312 kts 118°
2026-05-06 17:54 48.27504 16.06232 5791 ft 298 kts 119°
2026-05-06 17:54 48.26629 16.08969 5488 ft 280 kts 120°
2026-05-06 17:54 48.25831 16.11468 5189 ft 250 kts 120°
2026-05-06 17:55 48.25139 16.13653 5008 ft 218 kts 121°
2026-05-06 17:55 48.24472 16.15713 4990 ft 223 kts 123°
2026-05-06 17:55 48.23784 16.17800 4981 ft 221 kts 123°
2026-05-06 17:55 48.23100 16.19874 4998 ft 224 kts 122°
2026-05-06 17:56 48.22420 16.21984 4993 ft 224 kts 120°
2026-05-06 17:56 48.21795 16.24133 4870 ft 224 kts 122°
2026-05-06 17:56 48.21108 16.26216 4590 ft 221 kts 122°
2026-05-06 17:56 48.20441 16.28274 4278 ft 219 kts 122°
2026-05-06 17:57 48.19786 16.30291 3980 ft 217 kts 123°
2026-05-06 17:57 48.19137 16.32292 3708 ft 207 kts 122°
2026-05-06 17:57 48.18540 16.34137 3446 ft 189 kts 123°
2026-05-06 17:57 48.17959 16.35907 3183 ft 188 kts 123°
2026-05-06 17:58 48.17396 16.37644 2928 ft 182 kts 124°
2026-05-06 17:58 48.16846 16.39327 2679 ft 178 kts 123°
2026-05-06 17:58 48.16340 16.40899 2457 ft 162 kts 124°
2026-05-06 17:58 48.15868 16.42347 2245 ft 146 kts 124°
2026-05-06 17:59 48.15433 16.43727 2014 ft 149 kts 124°
2026-05-06 17:59 48.15042 16.45111 1814 ft 144 kts 122°
2026-05-06 17:59 48.14641 16.46488 1634 ft 142 kts 126°
2026-05-06 17:59 48.14202 16.47794 1424 ft 135 kts 126°
2026-05-06 18:00 48.13754 16.48999 1203 ft 133 kts 127°
2026-05-06 18:00 48.13337 16.50191 1027 ft 126 kts 127°
2026-05-06 18:00 48.12966 16.51319 907 ft 118 kts 127°
2026-05-06 18:00 48.12611 16.52400 747 ft 118 kts 126°
2026-05-06 18:01 48.12228 16.53514 636 ft 122 kts 123°
2026-05-06 18:01 48.11994 16.54258 612 ft 112 kts 123°
2026-05-06 18:01 48.11664 16.55221 614 ft 49 kts 115°
2026-05-06 18:01 48.11535 16.55633 621 ft 40 kts 109°
2026-05-06 18:02 48.11499 16.55898 617 ft 7 kts 92°
2026-05-06 18:02 48.11500 16.55983 617 ft 10 kts 86°
2026-05-06 18:02 48.11512 16.56091 617 ft 10 kts 72°
2026-05-06 18:02 48.11527 16.56124 628 ft 0 kts 39°
2026-05-06 18:03 48.11550 16.56146 623 ft 10 kts 30°
2026-05-06 18:04 48.11625 16.56204 615 ft 20 kts 29°
2026-05-06 18:04 48.11712 16.56284 609 ft 4 kts 28°
2026-05-06 18:04 48.11759 16.56324 617 ft 10 kts 41°
2026-05-06 18:04 48.11748 16.56385 604 ft 7 kts 104°
2026-05-06 18:05 48.11728 16.56459 611 ft 8 kts 118°
2026-05-06 18:05 48.11702 16.56537 605 ft 9 kts 117°
2026-05-06 18:05 48.11667 16.56609 618 ft 5 kts 162°
2026-05-06 18:05 48.11646 16.56595 608 ft 3 kts 206°
2026-05-06 18:06 48.11632 16.56585 624 ft 2 kts 205°
2026-05-06 18:06 48.11623 16.56579 616 ft 1 kts 205°
2026-05-06 18:06 48.11621 16.56577 615 ft 0 kts 205°
2026-05-06 18:06 48.11620 16.56577 614 ft 1 kts 205°
2026-05-06 18:07 48.11616 16.56574 620 ft 0 kts 205°